Weather History for Bentonville, AR

Change the Weather History Date:

Thursday, January 12, 2012

  Actual Average Record
Temperature  
Mean Temperature 22 °F -  
Max Temperature 24 °F 41 °F 69 °F (1960)
Min Temperature 19 °F 19 °F -8 °F (1977)
Degree Days  
Heating Degree Days 44    
Moisture  
Dew Point 13 °F    
Average Humidity 63    
Maximum Humidity 80    
Minimum Humidity 59    
Precipitation  
Precipitation 0.00 in - - ()
Sea Level Pressure  
Sea Level Pressure 30.02 in    
Wind  
Wind Speed 11 mph (West)    
Max Wind Speed 18 mph    
Max Gust Speed 26 mph    
Visibility 10 miles    
Events      
Averages and records for this station are not official NWS values.
T = Trace of Precipitation, MM = Missing Value Source: NWS Daily Summary

Daily Weather History Graph

Daily Weather History Graph

Search for Another Location

Airport:

Trip Planner

Search our weather history database for the weather conditions in past years. The results will help you decide how hot, cold, wet, or windy it might be!

Date:

Astronomy

Jan. 12, 2012 Rise Set
Actual Time 7:28 AM CST 5:22 PM CST
Civil Twilight 7:00 AM CST 5:50 PM CST
Nautical Twilight 6:28 AM CST 6:22 PM CST
Astronomical Twilight 5:57 AM CST 6:53 PM CST
Moon 9:19 PM CST (1/12) 9:19 AM CST (1/12)
Length of Visible Light 10h 50m
Length of Day
9h 53m
Waning Gibbous, 87% of the Moon is Illuminated
Jan 12
Waning Gibbous
Jan 16
Last Quarter
Jan 23
New
Jan 30
First Quarter
Feb 7
Full

Hourly Weather History & Observations

Time (CST) Temp. Windchill Dew Point Humidity Pressure Visibility Wind Dir Wind Speed Gust Speed Precip Events Conditions
2:55 PM 23.0 °F 11.1 °F 12.2 °F 63% 29.99 in 10.0 mi WNW 12.7 mph 24.2 mph N/A   Overcast
3:15 PM 23.0 °F 8.7 °F 12.2 °F 63% 29.99 in 10.0 mi NW 18.4 mph 26.5 mph N/A   Overcast
3:35 PM 24.8 °F 12.4 °F 12.2 °F 59% 30.00 in 10.0 mi WNW 15.0 mph 23.0 mph N/A   Overcast
3:55 PM 24.8 °F 12.9 °F 12.2 °F 59% 30.00 in 10.0 mi WNW 13.8 mph 18.4 mph N/A   Overcast
4:15 PM 24.8 °F 11.9 °F 12.2 °F 59% 30.00 in 10.0 mi WNW 16.1 mph 21.9 mph N/A   Overcast
4:35 PM 24.8 °F 13.4 °F 12.2 °F 59% 30.00 in 10.0 mi WNW 12.7 mph 17.3 mph N/A   Overcast
5:15 PM 24.8 °F 14.0 °F 12.2 °F 59% 30.00 in 10.0 mi West 11.5 mph - N/A   Overcast
5:35 PM 24.8 °F 14.0 °F 14.0 °F 64% 30.00 in 10.0 mi West 11.5 mph - N/A   Overcast
5:55 PM 24.8 °F 16.1 °F 15.8 °F 69% 30.01 in 10.0 mi West 8.1 mph - N/A   Overcast
6:15 PM 24.8 °F 15.3 °F 14.0 °F 64% 30.01 in 10.0 mi West 9.2 mph - N/A   Mostly Cloudy
6:35 PM 24.8 °F 15.3 °F 14.0 °F 64% 30.01 in 10.0 mi West 9.2 mph - N/A   Clear
6:55 PM 24.8 °F 16.1 °F 14.0 °F 64% 30.01 in 10.0 mi West 8.1 mph - N/A   Clear
7:15 PM 24.8 °F 16.9 °F 14.0 °F 64% 30.02 in 10.0 mi WNW 6.9 mph - N/A   Clear
7:35 PM 24.8 °F 16.9 °F 12.2 °F 59% 30.03 in 10.0 mi NW 6.9 mph - N/A   Clear
7:55 PM 24.8 °F 17.9 °F 12.2 °F 59% 30.03 in 10.0 mi NW 5.8 mph - N/A   Mostly Cloudy
8:15 PM 24.8 °F 17.9 °F 12.2 °F 59% 30.03 in 10.0 mi WNW 5.8 mph - N/A   Overcast
8:35 PM 24.8 °F 17.9 °F 14.0 °F 64% 30.04 in 10.0 mi WNW 5.8 mph - N/A   Overcast
8:55 PM 24.8 °F 16.1 °F 14.0 °F 64% 30.05 in 10.0 mi WNW 8.1 mph - N/A   Overcast
9:15 PM 24.8 °F 16.9 °F 12.2 °F 59% 30.05 in 10.0 mi WNW 6.9 mph - N/A   Mostly Cloudy
9:55 PM 21.2 °F 14.9 °F 12.2 °F 68% 30.05 in 10.0 mi West 4.6 mph - N/A   Clear
10:15 PM 21.2 °F 14.9 °F 12.2 °F 68% 30.05 in 10.0 mi WSW 4.6 mph - N/A   Clear
10:35 PM 21.2 °F 14.9 °F 12.2 °F 68% 30.05 in 10.0 mi SW 4.6 mph - N/A   Clear
10:55 PM 19.4 °F 10.4 °F 14.0 °F 80% 30.05 in 10.0 mi WSW 6.9 mph - N/A   Clear
11:15 PM 21.2 °F 12.6 °F 10.4 °F 63% 30.05 in 10.0 mi WSW 6.9 mph - N/A   Clear
11:35 PM 21.2 °F 13.6 °F 10.4 °F 63% 30.05 in 10.0 mi WSW 5.8 mph - N/A   Clear
11:55 PM 21.2 °F 11.7 °F 10.4 °F 63% 30.05 in 10.0 mi WNW 8.1 mph - N/A   Clear